sat.trackr.live / text

‹ back to catalog

STARLINK-36065

NORAD 66898 · 2025-283W

PAYLOAD ACTIVE UNKNOWN

§ Identity

Operator
Country
US
Launch date
2025-12-04
Launch site
AFWTR
Launch vehicle
Mass (kg)
RCS (m²)

Purposes: comms

External: N2YO · Heavens-Above · Gunter

§ Orbital elements

Epoch: 2026-05-25T01:37:25.754880Z

Period
93.85 min
Inclination
53.1620°
Eccentricity
0.0001147
Mean motion
15.34404158 rev/d
Perigee alt
461.9 km
Apogee alt
463.5 km
Semi-major
6,840.8 km
B*
4.7506e-4
RAAN
28.9959°
Arg perigee
88.4279°
Mean anomaly
271.6855°
Rev number
2,754

§ Raw data

STARLINK-360651 66898U 25283W   26145.06765920  .00015710  00000+0  47506-3 0  99982 66898  53.1620  28.9959 0001147  88.4279 271.6855 15.34404158 27546

JSON: /api/v1/satellites/66898 · /tle

For live sub-satellite position, see the globe view (requires WebGL).

§ Visibility from observer

Set your observer location to see the next 7 days of passes ≥ 10°. The values pass through the URL so the page stays shareable.

No JS? Fill the form by hand. The geolocation button needs JavaScript.